• Processing (Info)

  • MPEC 2000-U29 : 2000 UK11

    The following Minor Planet Electronic Circular may be linked-to from your own Web pages, but must not otherwise be redistributed electronically.

    A form allowing access to any MPEC is at the bottom of this page.


    Read MPEC 2000-U28 Read MPEC 2000-U30


    M.P.E.C. 2000-U29                                Issued 2000 Oct. 27, 18:45 UT
    
         The Minor Planet Electronic Circulars contain information on unusual
             minor planets and routine data on comets.  They are published
       on behalf of Commission 20 of the International Astronomical Union by the
              Minor Planet Center, Smithsonian Astrophysical Observatory,
                              Cambridge, MA 02138, U.S.A.
    
                 Prepared using the Tamkin Foundation Computer Network
    
                                  MPC@CFA.HARVARD.EDU
              URL http://cfa-www.harvard.edu/iau/mpc.html  ISSN 1523-6714
    
                                       2000 UK11
    
    Observations:
         K00U11K* C2000 10 25.30332 02 25 04.67 +28 18 50.6          17.6        704
         K00U11K  C2000 10 25.31697 02 24 50.44 +28 18 57.5          17.7        704
         K00U11K  C2000 10 25.33085 02 24 35.96 +28 19 03.1          17.7        704
         K00U11K  C2000 10 25.34451 02 24 21.73 +28 19 07.9          18.1        704
         K00U11K  C2000 10 25.35838 02 24 07.14 +28 19 11.4          17.7        704
         K00U11K  C2000 10 26.22828 02 09 29.21 +28 24 10.9          18.1        704
         K00U11K  C2000 10 26.24327 02 09 09.73 +28 24 17.2          18.6        704
         K00U11K  C2000 10 26.25603 02 08 53.07 +28 24 21.6          17.3        704
         K00U11K  C2000 10 26.25714 02 08 51.62 +28 24 21.8          17.7        704
         K00U11K  C2000 10 26.27001 02 08 34.65 +28 24 24.9          17.4        704
         K00U11K  C2000 10 26.27114 02 08 33.18 +28 24 26.0          17.9        704
         K00U11K  C2000 10 26.28429 02 08 15.77 +28 24 27.6          17.6        704
         K00U11K  C2000 10 27.16891 01 48 53.62 +28 19 29.3          18.2 V      739
         K00U11K  C2000 10 27.17008 01 48 51.72 +28 19 28.0          17.5 V      739
         K00U11K  C2000 10 27.17117 01 48 49.89 +28 19 27.7          17.6 V      739
         K00U11K  C2000 10 27.24305 01 46 57.82 +28 19 28.5          16.8        919
         K00U11K  C2000 10 27.24413 01 46 55.97 +28 19 26.9          17.0        919
         K00U11K  C2000 10 27.24741 01 46 50.40 +28 19 25.4          17.5        919
         K00U11K  C2000 10 27.52587 01 39 30.32 +28 14 04.1                      900
         K00U11K  C2000 10 27.52802 01 39 26.42 +28 14 00.8          16.9 V      900
    
    Observer details:
    704 Lincoln Laboratory ETS, New Mexico.  Observers M. Blythe, F. Shelly,
        M. Bezpalko, M. Elowitz, R. Huber, L. Manguso.  Measurers J. Stuart,
        R. Sayer, J. B. Evans, H. Viggh.  1.0-m f/2.15 reflector + CCD.
    739 Sunflower Observatory, Olathe.  Observer L. Robinson.  0.25-m
        Schmidt-Cassegrain + CCD.
    900 Moriyama.  Observer Y. Ikari.  0.25-m f/6.3 reflector + CCD.
    919 Desert Beaver Observatory.  Observer B. Yeung.  0.45-m reflector + CCD.
    
    Orbital elements:
    2000 UK11
    Epoch 2000 Sept. 13.0 TT = JDT 2451800.5                Spahr
    M 192.39150              (2000.0)            P               Q
    n   1.19298983     Peri.  291.61800     -0.98924144     -0.14588124
    a   0.8804639      Node   239.99516     +0.13846441     -0.90951093
    e   0.2533548      Incl.    0.72491     +0.04721208     -0.38924096
    P   0.83           H   24.6           G   0.15           U   9
    From 20 observations Oct. 25 - 27, mean residual 0".89.
    
    Ephemeris:
    2000 UK11                a,e,i = 0.88, 0.25, 1                   q = 0.6574
    Date    TT    R. A. (2000) Decl.     Delta      r     Elong.  Phase     V
    2000 10 23    02 51.76   +27 51.7    0.034    1.026   158.3    21.0    18.3
    2000 10 24    02 41.90   +28 04.8    0.030    1.023   160.4    19.1    18.0
    2000 10 25    02 29.49   +28 16.4    0.027    1.020   162.3    17.2    17.7
    2000 10 26    02 13.60   +28 24.2    0.024    1.017   163.9    15.8    17.4
    2000 10 27    01 52.85   +28 22.8    0.021    1.014   164.1    15.6    17.1
    2000 10 28    01 25.24   +28 01.7    0.018    1.011   161.8    17.9    16.8
    2000 10 29    00 48.15   +26 59.2    0.015    1.007   155.8    23.9    16.7
    2000 10 30    23 58.95   +24 36.1    0.013    1.004   145.5    34.0    16.6
    2000 10 31    22 57.56   +20 01.3    0.012    1.000   131.0    48.5    16.8
    2000 11 01    21 49.94   +13 02.1    0.011    0.997   113.2    66.2    17.2
    2000 11 02    20 46.60   +05 03.6    0.012    0.993    95.3    84.0    17.9
    
    2000 11 07    18 06.11   -15 29.0    0.024    0.975    47.1   131.8    22.3
    2000 11 12    17 18.45   -20 01.6    0.040    0.955    30.5   148.3    25.6
    
    Timothy B. Spahr             (C) Copyright 2000 MPC           M.P.E.C. 2000-U29
    

    Read MPEC 2000-U28 Read MPEC 2000-U30


    MPEC number:

    Enter an MPEC number in one of the following forms:

    • 1997-B01 (the full form)
    • J97B01 (the packed version of the full form)
    • B01 (the abbreviated form)